COSMOS 2591

Last updated on Sun Sep 14 2025 00:02:06 GMT+0000 (Coordinated Universal Time)

1 65267U 25182A 25254.40208199 .00031536 00000+0 15461-3 0 9992 2 65267 96.5862 187.5809 0015780 160.0149 200.1743 15.82001352 3315
UTC large
Height (km)
Speed (km/s)
/
Latitude / Longitude
Inclination (degrees)
Orbital Period (minutes)
Azimuth
Elevation
Range (km)
Doppler Factor

Next 0 passes for location: London (51.5072 / 0.1276)

Sorry there are no passes over London.